Wind_Speed
84 83 82 82 81 80 79 78 77 79 83 83 82 81 81 80 78 76 75 73 71 67 64 61 59 56 53 50 48 45 43 43 41 41 40 37 36 36 38 39 41 40 39 39 38 37 37 35 33 30 29 30 31 32 32 30 28 27 27 27 26 25
82 81 80 79 78 78 76 75 76 77 78 78 78 79 79 77 75 73 71 70 68 64 62 59 56 55 51 49 48 46 44 44 43 42 41 40 38 37 36 36 38 38 38 37 35 35 36 35 31 28 29 30 32 32 31 30 29 28 28 28 26 26
78 77 77 76 76 76 74 71 71 71 72 76 78 79 78 74 72 71 69 67 65 62 60 59 55 54 52 50 49 47 46 45 44 43 40 37 35 34 34 34 35 36 36 35 34 34 35 33 29 27 29 30 32 32 32 31 29 29 29 28 27 26
75 75 74 72 70 70 69 67 67 69 72 76 77 77 75 72 71 70 68 65 63 61 59 58 55 53 53 50 49 48 46 45 44 41 37 33 33 33 33 32 32 33 33 33 34 34 32 30 28 28 29 31 32 33 33 33 32 31 30 29 28 26
73 72 70 67 66 66 67 66 68 69 71 73 73 72 72 70 69 68 67 64 62 61 58 57 56 53 52 50 48 47 46 45 44 41 38 36 35 34 32 31 31 32 32 32 32 31 30 30 29 29 30 32 33 34 34 35 34 32 31 30 29 27
69 68 66 65 64 66 66 65 65 66 66 68 68 68 69 68 67 66 65 63 61 59 57 56 54 53 52 50 48 47 46 45 44 42 41 38 35 33 32 32 33 33 31 30 29 29 30 31 31 31 32 33 34 35 35 35 34 33 32 32 30 28
64 63 62 62 62 61 61 60 60 62 63 64 66 67 67 66 66 64 63 62 60 58 56 54 53 51 50 49 47 46 45 44 43 42 41 37 33 30 30 31 32 30 27 26 27 29 31 32 32 32 33 33 34 35 35 35 35 35 34 33 32 29
61 61 60 59 58 55 54 56 57 60 62 62 64 64 64 64 64 62 61 60 58 56 54 52 50 49 48 47 46 45 44 42 41 39 37 34 30 29 29 29 28 26 26 27 28 29 31 33 33 32 33 34 35 35 36 37 37 36 36 35 33 30
60 60 59 58 58 56 55 59 60 62 62 62 62 62 61 61 61 60 58 57 55 54 51 49 48 47 45 43 42 41 40 38 35 33 31 30 29 28 28 28 27 27 28 28 28 29 30 32 33 33 34 34 35 36 37 38 38 38 38 37 34 32
60 60 60 59 59 59 59 60 61 61 61 60 60 59 59 58 58 56 54 53 51 50 48 47 45 42 40 38 36 35 34 33 30 28 28 27 27 28 28 28 28 27 27 27 27 28 28 30 32 34 34 36 38 38 39 40 40 40 40 38 36 36
60 60 60 60 59 59 58 58 58 59 58 58 58 57 56 55 54 52 50 49 48 47 46 44 41 38 35 33 32 30 29 27 25 25 25 26 27 27 26 25 25 25 25 25 26 27 28 31 34 36 36 38 40 41 41 41 42 42 41 40 39 38
59 59 59 58 58 57 56 55 55 55 55 55 55 54 53 52 50 48 46 45 43 42 40 37 35 32 28 27 27 27 26 23 22 23 24 26 27 25 23 23 23 23 24 27 30 34 36 38 39 38 38 40 41 42 42 42 42 42 41 41 41 41
59 58 58 57 55 54 53 52 52 52 52 53 52 52 50 48 46 44 42 39 36 35 33 28 25 22 20 22 26 26 23 22 21 22 23 25 26 25 23 22 23 28 34 38 40 40 40 40 40 40 40 40 40 40 42 44 43 42 42 42 43 43
60 57 56 55 53 50 50 49 49 49 50 50 50 49 48 45 43 40 38 37 35 34 32 26 21 21 22 25 28 26 24 24 25 25 25 26 27 28 27 28 33 38 41 40 38 37 37 38 41 41 40 40 38 38 42 45 46 45 45 45 46 45
58 55 53 51 49 47 47 47 47 47 47 47 47 46 44 42 41 38 37 37 36 33 28 25 22 23 29 32 32 31 30 32 33 33 33 33 34 35 36 38 39 38 37 36 35 35 37 39 41 41 40 39 39 38 38 39 40 44 47 47 47 46
54 51 49 47 46 44 44 44 44 44 44 43 43 42 40 38 37 36 35 35 36 34 30 28 24 25 31 34 34 35 37 39 41 41 40 39 39 39 37 37 35 33 34 35 35 36 38 40 41 39 37 37 38 38 35 32 31 35 40 41 40 40
49 47 45 43 42 41 41 41 41 41 40 39 38 37 36 34 32 31 30 30 32 33 33 34 32 34 38 39 39 39 39 39 38 36 34 33 33 33 32 31 31 33 34 35 36 37 39 40 38 35 34 36 37 37 35 31 29 29 31 32 32 32
45 43 41 39 38 38 38 37 37 36 34 33 33 32 31 30 28 27 26 25 25 26 28 31 32 35 38 37 36 34 32 30 28 27 28 29 30 30 30 30 31 34 35 36 37 38 39 38 34 32 32 35 37 36 34 32 30 28 27 27 27 26
43 41 39 38 36 35 34 33 32 31 30 28 27 27 26 25 23 22 21 20 20 19 20 21 22 23 26 26 26 26 26 26 26 27 28 30 31 31 32 32 33 34 35 36 36 37 38 37 34 32 32 34 36 35 33 31 30 29 28 27 26 25
41 39 37 36 35 34 33 32 30 28 27 25 23 22 22 21 20 19 18 16 15 14 15 16 16 17 19 21 23 24 25 26 28 29 31 32 33 33 34 34 34 34 34 34 33 34 35 35 34 32 32 34 34 34 33 30 28 29 28 27 26 26
39 37 36 35 35 33 32 32 30 28 26 24 22 21 20 19 18 18 16 16 16 16 17 18 18 20 22 23 24 25 25 27 28 30 33 34 34 35 35 34 34 33 32 31 30 31 33 34 33 31 31 32 32 33 32 30 28 29 29 28 27 28
39 37 37 36 34 33 31 31 31 30 28 26 23 21 20 19 18 18 18 19 20 21 21 22 22 23 24 26 26 27 28 29 29 30 33 34 35 36 35 34 33 31 29 27 26 28 31 32 32 30 29 30 31 31 31 30 30 30 31 31 31 31
40 39 37 36 35 33 32 30 30 30 29 28 26 24 22 21 20 20 21 22 23 24 25 25 25 26 27 28 29 29 29 28 28 29 31 33 35 36 35 34 31 29 27 25 25 27 28 30 30 29 29 29 30 30 31 31 32 32 33 34 35 36
40 39 39 38 36 35 33 32 31 31 31 30 29 27 25 24 23 22 22 23 24 26 27 27 27 27 28 28 28 28 27 26 26 26 29 32 34 35 35 33 30 28 26 25 25 25 24 25 27 29 29 28 28 30 31 31 32 31 31 32 34 36
40 40 40 39 38 37 35 34 33 32 32 32 32 31 30 28 27 25 24 24 24 26 27 27 28 28 28 27 27 27 27 26 26 26 27 30 32 34 34 32 30 28 25 24 24 23 20 20 25 28 28 28 29 30 31 32 33 32 32 32 32 33
40 41 41 40 39 38 37 36 35 34 33 33 33 33 33 32 30 29 29 28 27 28 28 28 29 28 28 28 28 29 29 29 28 28 28 29 31 32 32 32 30 28 26 24 23 22 20 21 25 28 29 29 30 32 32 33 34 33 33 32 30 29
41 41 41 41 39 38 38 37 36 35 34 34 33 34 34 34 33 33 34 33 33 33 33 32 32 31 31 31 31 30 30 30 30 29 28 29 30 31 32 31 30 27 25 23 22 21 22 23 24 26 28 30 32 33 33 33 33 33 33 32 30 29
41 41 41 40 39 38 37 37 36 36 35 35 34 34 34 34 34 34 34 35 35 35 35 35 35 34 34 33 32 31 30 29 29 29 29 29 29 30 30 30 29 27 25 23 22 21 21 23 24 25 26 28 30 32 32 32 33 33 33 32 30 28
41 40 40 38 38 37 36 36 36 36 36 36 36 36 36 36 35 34 34 34 34 34 35 36 36 36 35 35 34 32 31 30 29 30 30 30 29 28 28 27 26 26 24 22 21 20 20 22 23 24 25 25 26 27 28 29 30 31 30 29 27 27
39 38 37 36 36 35 35 34 34 35 35 36 36 37 37 36 36 35 35 35 35 35 35 36 36 36 35 35 34 34 33 31 31 31 32 32 31 29 27 26 25 24 23 21 21 20 21 21 23 24 25 25 24 25 25 26 27 28 28 27 27 27
37 36 34 34 34 33 33 32 32 32 33 34 34 34 34 34 34 34 34 35 35 35 35 35 35 35 35 35 35 35 34 34 33 33 33 34 34 32 29 27 25 24 24 23 23 23 22 23 23 24 25 25 25 25 25 25 26 26 27 27 27 26
35 34 33 32 32 32 32 31 31 31 32 32 32 32 32 31 31 32 32 33 33 33 32 31 31 31 32 33 34 35 35 35 35 35 35 36 36 36 34 31 29 29 28 27 26 25 25 24 24 24 24 25 25 25 25 25 25 25 25 25 25 25
34 33 33 33 33 32 32 32 32 33 33 32 32 32 32 32 31 31 32 33 33 32 31 30 29 29 29 30 31 32 33 34 36 37 37 38 38 39 39 37 36 35 34 33 31 29 28 27 26 25 25 24 25 26 26 26 26 25 26 26 25 25
32 32 33 34 35 35 34 34 35 35 35 34 33 34 34 34 33 32 33 34 34 34 32 31 30 29 29 30 30 31 31 32 34 36 37 39 39 40 41 41 41 40 39 38 36 34 31 30 29 28 27 26 26 26 26 27 27 27 27 27 28 27
28 29 33 36 36 36 35 36 37 36 35 35 34 34 36 36 35 34 34 34 35 35 34 33 32 31 30 30 31 31 31 31 31 32 34 37 38 40 41 41 41 41 40 39 38 36 34 33 32 31 31 30 30 29 28 29 29 29 29 29 29 29
25 30 37 39 37 35 35 38 39 37 36 37 37 36 36 37 37 36 35 35 36 37 37 35 34 33 32 32 32 33 34 33 32 31 32 33 35 37 38 39 40 40 39 39 38 37 36 35 34 33 33 33 33 33 32 31 31 31 31 31 30 30
26 36 41 40 36 34 37 39 40 39 38 40 40 38 38 39 39 39 38 38 38 39 40 38 37 36 36 35 34 34 34 35 35 35 34 34 34 35 36 37 38 39 40 39 39 38 38 37 36 35 34 34 35 35 34 32 31 31 31 32 32 32
Wind_Direction
284 285 285 285 285 285 285 286 287 288 289 290 291 290 291 292 291 291 291 291 291 291 291 290 290 289 289 290 290 289 289 290 290 286 283 279 276 280 284 284 283 279 276 277 279 278 281 284 289 289 284 281 280 280 280 279 277 273 274 280 282 279
284 284 284 284 284 284 285 286 288 288 288 288 288 288 289 291 291 290 290 290 289 290 289 289 289 289 289 288 287 287 285 285 285 281 280 280 282 284 283 281 277 274 275 276 275 276 281 284 286 286 284 282 281 280 279 279 276 273 274 279 280 276
283 283 283 283 283 284 285 285 286 285 284 284 284 285 287 288 288 288 288 287 287 288 287 287 287 287 286 285 284 284 283 283 282 281 282 284 284 282 279 277 275 273 273 272 273 277 280 282 284 285 284 282 280 280 280 280 278 275 276 278 278 274
282 281 281 282 283 283 282 280 279 278 279 281 281 283 284 284 285 286 286 285 286 285 285 285 285 284 284 284 283 283 284 285 284 285 286 284 280 278 278 277 274 270 269 270 274 276 278 281 284 285 283 280 280 281 283 283 281 278 277 277 277 271
281 281 281 281 281 280 279 277 276 275 276 277 279 280 282 282 283 283 284 284 284 283 283 283 283 283 282 282 282 283 284 284 285 286 286 283 278 275 276 277 272 267 267 270 273 275 278 281 284 284 282 281 281 284 285 285 283 279 276 275 274 268
281 281 281 280 279 278 279 278 276 275 274 275 277 279 280 281 281 281 281 282 282 281 282 282 282 282 282 282 282 283 284 284 285 287 286 285 282 276 274 273 270 266 266 269 273 277 279 281 283 282 281 281 282 284 284 284 281 277 274 272 270 265
280 279 279 279 279 279 279 277 276 275 274 275 276 278 279 279 279 279 279 280 280 280 281 281 282 282 282 283 283 284 284 284 285 286 286 286 285 280 273 269 267 265 265 270 275 278 279 281 282 281 281 281 282 282 282 280 277 274 271 269 268 262
281 279 279 279 279 278 275 275 275 276 276 276 276 277 277 277 278 278 278 279 280 280 281 281 282 282 283 283 284 285 285 285 286 285 285 284 282 277 271 266 263 263 268 274 277 277 277 278 278 279 280 281 281 281 280 277 273 270 268 266 265 258
282 281 281 280 279 277 274 275 276 277 277 277 276 276 276 276 277 277 278 279 280 281 282 282 282 283 284 285 286 287 288 288 287 285 282 281 277 273 268 265 264 268 274 276 275 273 273 274 275 277 279 281 281 280 278 275 271 267 264 263 260 253
283 283 282 281 280 278 277 277 276 277 277 276 276 275 275 275 276 277 279 280 281 283 284 285 286 288 290 292 293 292 291 287 285 282 279 277 273 270 269 268 269 271 272 271 269 268 269 272 275 277 279 280 280 277 275 271 267 264 261 259 256 251
284 283 283 282 281 280 279 278 278 277 276 276 275 274 274 274 275 277 279 280 282 283 284 285 286 289 292 295 293 289 284 281 280 279 276 275 274 272 270 269 268 267 267 267 268 270 274 277 278 278 279 279 278 275 273 270 266 262 259 258 256 252
286 285 284 283 282 281 281 280 279 278 277 276 276 275 275 276 277 278 281 283 285 286 286 285 287 288 288 287 280 274 273 276 278 277 273 271 270 267 265 263 265 268 271 274 277 279 280 281 280 279 279 278 275 273 271 268 264 260 257 256 254 252
289 287 285 284 283 283 282 281 280 279 278 277 277 276 277 277 278 279 281 282 282 282 283 284 283 284 279 269 264 264 269 273 270 268 266 267 265 261 257 258 267 276 280 281 282 282 282 280 278 278 278 275 272 271 267 262 259 257 255 254 254 253
289 287 287 286 285 285 283 282 280 279 278 278 278 277 277 277 276 274 272 271 270 267 270 270 262 262 260 254 255 259 264 264 260 260 262 265 266 261 257 262 274 281 283 283 282 281 281 279 277 276 275 272 272 273 269 262 257 255 255 256 256 257
288 287 287 287 287 286 285 283 281 280 279 279 278 278 277 276 274 271 267 265 263 259 259 260 255 257 258 254 255 256 257 258 259 262 263 263 266 266 266 272 279 282 284 285 284 282 280 278 276 274 271 270 272 275 273 268 261 256 256 258 260 261
287 287 287 288 288 288 286 285 284 282 281 280 279 279 278 276 274 271 267 263 260 255 249 249 248 250 255 254 255 256 258 261 264 266 266 266 269 271 274 278 281 282 283 285 285 282 279 275 273 270 265 265 270 273 271 271 268 261 258 259 260 262
287 287 288 289 289 289 287 286 285 284 283 282 281 281 280 278 276 273 269 264 260 256 250 247 242 241 249 254 257 261 263 266 268 270 271 271 272 275 278 279 281 281 281 281 280 278 276 272 268 264 259 262 269 271 268 269 272 267 260 258 258 259
286 287 288 288 288 287 287 286 285 285 284 283 282 281 280 279 277 275 271 267 262 257 252 250 245 243 249 254 256 260 262 266 270 272 274 274 274 276 278 278 280 280 278 276 275 274 272 269 263 257 256 260 266 269 268 269 272 269 263 259 258 257
286 287 288 287 286 285 284 283 283 283 283 282 280 279 278 278 277 275 272 268 263 258 252 250 248 244 247 249 249 252 256 264 270 272 274 275 275 277 278 279 279 278 275 273 271 270 269 266 262 256 254 257 261 264 268 272 273 268 265 261 256 255
287 289 289 289 288 287 285 283 283 285 285 283 280 278 278 278 277 274 271 267 260 254 250 249 249 247 247 251 254 257 260 267 272 273 274 276 277 278 278 278 276 274 272 270 269 267 265 265 263 259 256 257 259 262 267 271 270 265 265 263 258 257
288 288 289 289 290 290 290 289 289 288 286 284 281 278 278 277 276 274 268 261 254 250 249 249 250 251 253 256 259 260 264 269 272 273 273 275 277 277 276 274 273 272 270 268 267 264 264 265 265 262 259 260 262 265 269 272 269 264 262 263 262 261
287 287 288 288 289 290 290 290 290 290 288 285 282 279 277 275 270 266 259 252 250 249 249 247 247 250 255 258 260 262 266 269 269 271 273 275 275 275 273 272 270 269 266 265 264 262 263 265 265 263 260 262 265 266 269 270 267 263 261 262 262 261
285 286 287 287 287 287 287 286 284 284 285 285 284 280 277 274 268 262 256 250 248 249 250 250 252 255 260 263 264 265 267 267 267 270 273 274 274 272 270 269 267 263 262 261 261 262 263 265 264 262 260 260 262 264 265 265 264 263 262 261 260 258
283 284 285 285 284 284 283 282 280 277 277 278 278 278 276 275 272 268 262 256 253 254 257 260 262 264 265 266 265 265 266 267 268 270 271 272 271 270 268 266 262 260 260 260 260 262 265 267 262 258 258 258 260 262 263 263 263 263 261 259 257 255
280 281 281 281 281 281 281 280 280 277 274 272 272 273 272 272 271 270 267 263 260 260 261 262 264 265 266 266 266 268 270 271 272 271 270 270 269 267 265 263 260 260 260 260 261 262 260 260 258 255 255 257 260 262 264 264 263 262 261 259 257 256
278 278 279 280 280 280 280 279 279 278 276 273 271 271 270 270 268 266 264 263 262 262 262 262 263 265 266 266 268 271 273 274 275 273 271 269 268 266 264 261 261 261 261 260 261 261 256 253 255 255 253 255 258 261 262 264 265 265 263 261 260 260
276 277 278 279 279 279 279 278 278 277 275 274 273 272 272 272 270 267 265 264 264 264 264 265 266 267 268 268 269 272 273 274 275 274 271 269 267 265 263 262 262 261 261 261 262 261 259 257 258 258 254 253 255 258 260 262 264 264 264 266 266 264
276 277 278 278 278 278 277 277 276 275 274 273 273 273 273 273 272 270 268 267 267 267 268 268 269 270 270 270 271 271 270 270 271 270 269 267 265 263 262 262 261 259 259 261 263 264 265 264 263 262 261 258 255 255 257 259 260 262 266 269 268 265
277 278 278 278 277 276 275 274 274 273 273 273 273 274 274 274 274 273 272 272 271 271 271 272 272 272 272 272 271 270 269 267 266 265 264 263 261 260 260 259 259 259 259 262 266 270 272 271 268 267 266 265 260 256 254 255 258 261 264 265 265 266
276 277 277 276 275 274 273 273 273 273 273 273 273 272 273 273 274 275 275 274 273 273 272 272 272 272 272 272 271 270 268 266 263 262 261 260 260 258 258 259 259 259 260 265 270 274 277 276 273 269 268 267 265 262 257 255 256 257 259 260 261 263
275 275 274 273 273 273 273 272 272 271 271 271 270 270 271 272 273 273 273 272 271 271 270 270 270 271 271 270 270 270 268 266 264 261 258 257 257 257 257 258 259 259 261 266 272 276 278 279 276 272 269 269 269 267 264 259 257 256 256 256 257 258
274 274 273 273 272 272 272 272 271 271 270 270 271 272 272 273 273 273 273 272 271 271 270 270 270 270 271 270 270 270 269 266 263 261 257 256 255 255 255 257 258 260 262 265 270 273 275 277 276 273 270 272 272 272 270 267 262 258 255 254 255 257
274 274 274 274 274 273 273 273 273 272 271 271 272 273 272 272 272 272 272 272 273 274 274 274 274 273 273 272 271 271 269 266 263 260 258 256 255 254 255 256 258 261 263 265 267 268 269 271 272 271 270 271 273 273 271 269 266 262 258 256 256 258
274 275 276 275 273 273 273 273 273 272 272 272 271 271 271 270 269 268 269 271 273 274 275 275 274 274 274 273 272 271 269 267 263 261 259 258 257 256 256 257 259 261 263 264 264 264 264 265 266 267 267 268 270 272 271 270 268 264 260 258 258 259
272 273 272 270 269 271 273 273 271 271 273 273 271 271 271 270 269 268 268 270 271 271 271 271 271 270 271 271 271 271 270 268 265 263 261 261 260 259 259 259 260 262 263 263 264 263 263 263 265 266 266 266 268 270 273 273 270 266 262 260 259 259
269 264 261 263 266 271 275 277 276 275 275 274 272 273 273 272 271 270 270 270 270 270 270 270 270 268 269 270 271 271 270 269 268 266 264 263 262 262 261 261 261 261 262 263 263 262 262 263 265 265 265 266 267 270 273 275 272 267 263 262 261 260
260 257 257 262 267 269 270 274 277 277 276 276 275 275 276 277 276 274 273 272 272 273 273 273 272 271 272 274 275 273 270 268 267 266 266 266 265 264 262 261 260 260 260 260 260 261 261 263 264 264 265 265 267 269 271 272 272 268 265 263 263 262
Height
10774 10772 10770 10768 10766 10763 10760 10758 10756 10751 10744 10741 10741 10740 10740 10741 10742 10742 10742 10742 10742 10742 10743 10742 10742 10741 10742 10742 10742 10742 10743 10744 10746 10747 10749 10751 10752 10752 10752 10751 10749 10748 10747 10747 10746 10745 10745 10747 10749 10750 10750 10750 10750 10750 10751 10752 10752 10752 10752 10752 10751 10751
10768 10766 10764 10762 10760 10757 10756 10755 10751 10747 10742 10738 10737 10734 10734 10735 10736 10737 10736 10736 10736 10736 10736 10735 10736 10735 10736 10736 10737 10737 10738 10739 10741 10742 10744 10745 10746 10747 10747 10746 10745 10743 10742 10742 10742 10741 10740 10742 10744 10745 10745 10745 10745 10745 10746 10747 10748 10749 10749 10749 10748 10747
10762 10760 10758 10756 10755 10752 10751 10752 10747 10744 10739 10735 10733 10730 10729 10730 10731 10731 10730 10730 10730 10730 10730 10729 10730 10730 10730 10731 10732 10732 10733 10734 10735 10737 10739 10740 10741 10742 10742 10742 10741 10739 10737 10737 10736 10736 10736 10737 10739 10740 10740 10740 10740 10740 10742 10743 10744 10745 10745 10745 10745 10744
10755 10753 10752 10750 10750 10746 10744 10746 10744 10741 10735 10730 10727 10726 10725 10726 10726 10725 10724 10725 10724 10724 10724 10723 10724 10725 10725 10725 10726 10727 10728 10729 10730 10732 10734 10735 10736 10736 10737 10737 10736 10734 10733 10732 10731 10731 10731 10732 10734 10735 10735 10735 10735 10736 10737 10738 10739 10740 10741 10741 10741 10741
10743 10743 10745 10744 10743 10740 10737 10737 10737 10735 10730 10724 10722 10720 10720 10720 10720 10719 10718 10718 10718 10718 10718 10718 10719 10719 10719 10720 10721 10722 10723 10724 10725 10726 10728 10729 10730 10731 10731 10731 10731 10730 10729 10728 10727 10727 10727 10727 10729 10730 10731 10731 10731 10731 10732 10733 10734 10735 10736 10737 10737 10737
10734 10733 10736 10737 10735 10733 10730 10728 10727 10726 10722 10719 10717 10715 10715 10714 10713 10713 10712 10712 10712 10713 10713 10714 10714 10714 10714 10715 10716 10717 10718 10719 10720 10721 10722 10723 10724 10725 10725 10726 10726 10725 10725 10724 10723 10723 10722 10722 10724 10725 10725 10726 10726 10726 10727 10727 10728 10729 10731 10732 10733 10733
10725 10726 10728 10728 10728 10726 10723 10720 10718 10716 10714 10712 10711 10710 10709 10707 10707 10707 10707 10706 10706 10707 10709 10709 10709 10709 10709 10710 10711 10712 10713 10714 10715 10715 10716 10717 10718 10719 10720 10720 10720 10720 10721 10720 10720 10719 10718 10718 10718 10719 10720 10721 10721 10721 10722 10722 10723 10724 10726 10727 10728 10728
10717 10717 10719 10719 10719 10719 10716 10712 10710 10708 10706 10705 10704 10704 10702 10701 10700 10700 10700 10701 10701 10702 10704 10705 10705 10705 10705 10706 10707 10707 10708 10709 10710 10710 10710 10712 10713 10714 10714 10715 10715 10716 10716 10716 10715 10715 10714 10713 10713 10714 10714 10715 10716 10716 10716 10717 10718 10719 10720 10722 10723 10723
10709 10708 10709 10710 10710 10710 10708 10705 10703 10701 10699 10698 10697 10696 10696 10694 10693 10694 10695 10696 10696 10697 10699 10700 10700 10700 10701 10702 10702 10702 10703 10704 10704 10704 10705 10707 10708 10709 10710 10710 10710 10711 10711 10711 10711 10710 10710 10709 10709 10709 10709 10710 10710 10710 10711 10711 10712 10714 10715 10716 10717 10718
10702 10700 10700 10701 10700 10700 10699 10697 10695 10693 10692 10690 10690 10689 10689 10688 10688 10688 10690 10690 10691 10692 10693 10694 10695 10696 10697 10697 10697 10697 10697 10698 10699 10699 10701 10702 10704 10705 10705 10705 10706 10706 10706 10706 10706 10706 10706 10705 10704 10704 10704 10704 10704 10704 10705 10706 10707 10708 10709 10710 10711 10712
10694 10693 10692 10692 10692 10691 10690 10689 10687 10686 10684 10683 10683 10683 10682 10682 10683 10684 10685 10686 10687 10688 10689 10691 10691 10692 10693 10693 10692 10691 10691 10692 10694 10696 10697 10698 10700 10700 10701 10701 10701 10701 10701 10701 10701 10701 10701 10701 10700 10700 10699 10699 10698 10698 10699 10700 10701 10702 10703 10704 10706 10707
10687 10686 10685 10684 10684 10683 10682 10682 10680 10678 10677 10676 10676 10676 10676 10677 10678 10680 10680 10681 10683 10685 10686 10688 10689 10689 10689 10689 10686 10684 10686 10689 10691 10693 10694 10695 10695 10696 10697 10697 10697 10697 10697 10696 10696 10696 10696 10696 10696 10695 10694 10694 10693 10693 10694 10695 10696 10697 10698 10699 10700 10702
10680 10678 10677 10677 10677 10677 10676 10674 10672 10671 10670 10669 10669 10669 10670 10671 10673 10676 10676 10677 10682 10684 10684 10686 10687 10686 10685 10683 10679 10680 10684 10687 10688 10689 10690 10691 10692 10692 10693 10693 10692 10692 10691 10691 10691 10691 10691 10690 10690 10689 10689 10688 10688 10688 10689 10689 10691 10692 10693 10694 10695 10696
10674 10672 10671 10670 10670 10671 10669 10667 10665 10664 10663 10663 10662 10663 10664 10666 10669 10673 10673 10673 10678 10681 10682 10683 10684 10683 10680 10676 10674 10677 10681 10682 10682 10684 10686 10687 10688 10688 10689 10688 10687 10687 10686 10686 10686 10686 10686 10684 10683 10683 10683 10683 10684 10684 10683 10684 10685 10687 10688 10688 10689 10690
10668 10667 10665 10664 10664 10664 10662 10660 10659 10658 10657 10657 10657 10657 10659 10661 10663 10666 10668 10670 10671 10674 10677 10677 10679 10679 10674 10670 10671 10674 10676 10676 10677 10679 10682 10683 10683 10683 10684 10684 10683 10682 10680 10680 10681 10681 10681 10679 10677 10677 10677 10678 10679 10679 10678 10678 10679 10681 10681 10682 10683 10684
10663 10662 10660 10659 10659 10658 10656 10654 10653 10652 10652 10652 10652 10652 10654 10656 10657 10659 10662 10664 10665 10668 10671 10673 10676 10675 10668 10666 10668 10669 10670 10671 10672 10674 10676 10677 10678 10678 10679 10679 10678 10676 10675 10675 10675 10675 10674 10673 10672 10673 10673 10673 10673 10673 10674 10674 10674 10675 10675 10676 10677 10678
10659 10657 10656 10655 10654 10653 10651 10649 10648 10647 10647 10647 10647 10647 10648 10650 10652 10654 10656 10658 10660 10662 10665 10667 10670 10669 10663 10662 10664 10665 10666 10667 10668 10669 10670 10671 10672 10673 10673 10673 10672 10671 10670 10670 10670 10669 10668 10667 10667 10668 10669 10668 10667 10668 10669 10670 10670 10670 10670 10671 10672 10674
10654 10653 10652 10651 10650 10648 10646 10645 10643 10643 10643 10643 10643 10643 10644 10645 10647 10649 10650 10652 10654 10656 10658 10660 10662 10663 10660 10660 10661 10662 10663 10664 10664 10664 10665 10666 10667 10668 10668 10668 10667 10666 10665 10664 10664 10663 10661 10661 10662 10664 10664 10663 10663 10664 10665 10666 10666 10665 10666 10667 10668 10670
10649 10648 10647 10646 10646 10645 10643 10642 10640 10640 10639 10639 10639 10639 10640 10641 10643 10644 10645 10647 10649 10651 10652 10654 10656 10658 10657 10657 10658 10659 10660 10661 10661 10661 10661 10661 10662 10663 10663 10662 10661 10660 10659 10659 10659 10658 10656 10656 10658 10660 10660 10659 10659 10659 10661 10661 10661 10661 10662 10663 10665 10667
10643 10643 10642 10641 10640 10640 10639 10638 10637 10637 10636 10636 10636 10636 10637 10638 10639 10641 10642 10643 10645 10646 10648 10649 10652 10653 10654 10654 10654 10655 10657 10657 10657 10657 10657 10657 10657 10657 10657 10656 10655 10655 10654 10654 10654 10653 10652 10652 10654 10656 10655 10655 10655 10656 10657 10657 10657 10656 10658 10660 10661 10663
10638 10637 10637 10636 10636 10635 10634 10633 10633 10633 10633 10633 10633 10634 10634 10635 10636 10637 10639 10640 10641 10643 10644 10646 10648 10649 10650 10651 10651 10652 10653 10654 10654 10653 10652 10652 10652 10652 10651 10651 10650 10650 10650 10650 10650 10649 10647 10648 10649 10651 10651 10650 10651 10651 10652 10652 10653 10653 10654 10656 10658 10659
10632 10632 10632 10632 10632 10631 10631 10630 10629 10629 10629 10630 10630 10631 10632 10633 10634 10635 10636 10637 10638 10639 10640 10642 10643 10645 10645 10646 10647 10648 10649 10650 10650 10648 10648 10648 10647 10647 10646 10646 10646 10646 10646 10646 10645 10644 10643 10643 10645 10646 10647 10646 10646 10647 10647 10648 10648 10649 10650 10652 10653 10654
10626 10627 10627 10627 10627 10628 10627 10627 10626 10626 10626 10626 10627 10628 10628 10630 10630 10632 10633 10634 10635 10636 10636 10638 10639 10640 10641 10641 10641 10642 10643 10644 10645 10644 10643 10643 10642 10642 10641 10642 10642 10642 10642 10642 10642 10641 10640 10640 10641 10642 10643 10643 10642 10643 10643 10644 10644 10645 10646 10647 10648 10649
10622 10622 10622 10623 10623 10624 10624 10624 10623 10623 10623 10623 10623 10624 10625 10626 10627 10628 10630 10631 10632 10632 10633 10634 10635 10636 10636 10636 10637 10637 10638 10639 10640 10640 10640 10639 10638 10638 10637 10638 10638 10639 10639 10639 10638 10638 10638 10638 10638 10638 10639 10639 10639 10638 10639 10639 10640 10640 10641 10642 10643 10644
10618 10618 10618 10618 10619 10620 10620 10620 10620 10620 10620 10620 10620 10621 10622 10623 10624 10625 10626 10627 10628 10628 10629 10629 10630 10631 10631 10632 10632 10633 10634 10634 10635 10635 10636 10635 10635 10634 10634 10634 10634 10635 10635 10635 10635 10636 10636 10635 10635 10634 10634 10635 10635 10635 10635 10635 10635 10636 10637 10638 10638 10639
10614 10614 10614 10614 10615 10616 10616 10616 10617 10617 10617 10617 10617 10618 10618 10620 10621 10622 10622 10623 10623 10624 10625 10626 10626 10627 10627 10627 10628 10628 10629 10629 10630 10631 10631 10631 10631 10631 10630 10630 10631 10631 10631 10632 10632 10633 10633 10632 10632 10631 10631 10631 10632 10632 10632 10632 10632 10632 10632 10633 10634 10634
10609 10609 10610 10610 10610 10611 10612 10612 10613 10613 10613 10613 10613 10613 10614 10615 10617 10618 10618 10619 10619 10620 10621 10622 10622 10623 10623 10623 10623 10624 10625 10625 10625 10626 10626 10627 10627 10627 10627 10627 10627 10627 10628 10628 10629 10629 10629 10629 10629 10629 10628 10628 10628 10628 10629 10629 10629 10629 10628 10628 10629 10630
10604 10605 10605 10605 10606 10606 10607 10607 10608 10608 10608 10608 10608 10609 10609 10611 10612 10613 10614 10614 10614 10615 10615 10616 10617 10618 10619 10619 10619 10620 10620 10621 10621 10621 10622 10623 10624 10624 10624 10623 10624 10624 10624 10625 10626 10626 10626 10626 10626 10626 10626 10626 10625 10625 10625 10625 10625 10625 10625 10625 10625 10625
10600 10600 10601 10601 10601 10601 10602 10602 10602 10602 10603 10603 10604 10604 10605 10606 10607 10608 10608 10609 10610 10610 10611 10611 10612 10613 10613 10614 10614 10615 10616 10616 10617 10618 10618 10619 10620 10620 10621 10621 10621 10621 10621 10622 10622 10623 10623 10623 10623 10623 10623 10622 10622 10622 10622 10622 10622 10622 10622 10622 10621 10621
10595 10596 10596 10596 10596 10596 10596 10597 10597 10597 10598 10598 10599 10599 10599 10600 10601 10602 10602 10603 10604 10605 10606 10606 10607 10608 10608 10608 10609 10610 10611 10612 10613 10614 10614 10615 10616 10616 10617 10617 10618 10618 10618 10618 10618 10619 10620 10620 10620 10619 10619 10619 10619 10618 10618 10618 10618 10618 10618 10618 10618 10617
10592 10592 10592 10591 10591 10591 10591 10592 10592 10592 10592 10592 10592 10593 10593 10594 10595 10596 10596 10597 10598 10599 10600 10602 10602 10603 10603 10604 10604 10605 10606 10607 10608 10609 10610 10611 10612 10613 10613 10613 10614 10614 10615 10615 10615 10615 10616 10616 10616 10616 10616 10616 10616 10616 10615 10615 10615 10615 10615 10615 10614 10614
10589 10588 10587 10586 10586 10586 10586 10586 10587 10587 10587 10586 10587 10588 10588 10589 10590 10591 10591 10592 10592 10594 10595 10597 10598 10599 10599 10599 10599 10600 10601 10602 10603 10604 10605 10607 10608 10609 10609 10610 10610 10610 10611 10611 10611 10612 10612 10612 10613 10613 10613 10613 10613 10613 10613 10613 10612 10612 10612 10612 10611 10610
10586 10585 10584 10583 10582 10581 10581 10581 10581 10581 10581 10582 10583 10583 10584 10585 10586 10587 10587 10587 10588 10589 10591 10592 10594 10594 10595 10595 10596 10596 10597 10598 10598 10599 10600 10601 10603 10604 10605 10605 10606 10606 10607 10607 10608 10608 10608 10609 10609 10609 10610 10610 10610 10610 10610 10610 10610 10610 10609 10609 10608 10608
10584 10583 10582 10580 10577 10576 10576 10576 10575 10576 10576 10578 10579 10579 10579 10581 10582 10584 10584 10585 10586 10587 10588 10589 10590 10591 10591 10592 10592 10593 10593 10594 10594 10595 10595 10596 10597 10598 10599 10600 10601 10602 10602 10602 10603 10603 10604 10605 10605 10605 10606 10606 10606 10606 10607 10607 10607 10607 10606 10606 10605 10605
10585 10582 10576 10572 10570 10572 10573 10571 10571 10573 10573 10573 10574 10574 10575 10576 10578 10579 10581 10582 10583 10583 10584 10585 10586 10587 10587 10588 10588 10589 10589 10590 10590 10590 10591 10591 10592 10593 10594 10595 10595 10596 10597 10597 10598 10598 10599 10600 10601 10601 10602 10602 10603 10603 10603 10603 10603 10603 10603 10602 10602 10602
10586 10578 10568 10564 10567 10571 10572 10569 10568 10570 10570 10568 10569 10570 10569 10571 10572 10574 10576 10578 10578 10578 10579 10581 10582 10582 10583 10584 10584 10585 10585 10585 10585 10586 10586 10586 10587 10587 10588 10589 10590 10591 10591 10592 10593 10593 10594 10595 10596 10597 10597 10598 10599 10599 10599 10600 10599 10599 10599 10598 10598 10598
10581 10568 10561 10563 10568 10570 10568 10566 10565 10566 10566 10565 10566 10566 10565 10565 10566 10568 10570 10572 10572 10572 10573 10575 10576 10577 10578 10579 10579 10580 10580 10580 10580 10581 10581 10582 10582 10583 10583 10584 10585 10585 10586 10587 10587 10588 10589 10590 10590 10591 10592 10593 10594 10594 10595 10595 10595 10595 10594 10594 10594 10594